| time (UTC) | temp C | wind direction | speed KPH | gust KPH | rain 1hr cm | rain 24hr cm | rain mn cm | humidity % | barometer mb |
| 20260903190151 | 27 | 200 | 3.2 | 6.4 | 0.00 | 0.81 | 0.81 | 68 | 1012.9 |
| 20260903170151 | 25 | 231 | 1.6 | 8.0 | 0.00 | 0.81 | 0.81 | 75 | 1013.3 |
| 20260903160151 | 25 | 276 | 3.2 | 8.0 | 0.00 | 0.81 | 0.81 | 80 | 1013.9 |
| 20260903150151 | 23 | 272 | 3.2 | 8.0 | 0.00 | 0.81 | 0.81 | 86 | 1014.2 |
| 20260903140151 | 21 | 201 | 1.6 | 6.4 | 0.00 | 0.81 | 0.81 | 95 | 1014.4 |
| 20260903120153 | 20 | 0 | 0.0 | 0.0 | 0.00 | 0.81 | 0.81 | 95 | 1015.7 |
| 20260903110151 | 20 | 71 | 0.0 | 0.0 | 0.00 | 0.79 | 0.79 | 95 | 1015.7 |
| 20260903100151 | 19 | 0 | 0.0 | 0.0 | 0.00 | 0.79 | 0.79 | 95 | 1014.8 |
| 20260903090153 | 19 | 0 | 0.0 | 0.0 | 0.00 | 0.79 | 0.79 | 95 | 1015.2 |
| 20260903080151 | 18 | 0 | 0.0 | 0.0 | 0.00 | 0.79 | 0.79 | 95 | 1015.7 |
| 20260903070151 | 18 | 299 | 1.6 | 4.8 | 0.46 | 0.79 | 0.79 | 95 | 1016.5 |
| 20260903060151 | 18 | 302 | 4.8 | 11.3 | 0.00 | 0.00 | 0.00 | 91 | 1017.9 |
| 20260903050151 | 20 | 157 | 0.0 | 4.8 | 0.00 | 0.00 | 0.00 | 84 | 1018.1 |
| 20260903040152 | 19 | 169 | 0.0 | 0.0 | 0.00 | 0.00 | 0.00 | 82 | 1018.4 |
| 20260903030151 | 19 | 0 | 0.0 | 0.0 | 0.00 | 0.00 | 0.00 | 79 | 1018.7 |
| 20260903020151 | 20 | 223 | 0.0 | 4.8 | 0.00 | 0.00 | 0.00 | 76 | 1019.7 |
| 20260903010151 | 20 | 167 | 1.6 | 4.8 | 0.00 | 0.03 | 0.00 | 74 | 1019.6 |
| 20260903000152 | 20 | 112 | 1.6 | 4.8 | 0.00 | 0.03 | 0.00 | 73 | 1019.2 |
| 20260902230151 | 21 | 174 | 0.0 | 4.8 | 0.00 | 0.03 | 0.00 | 71 | 1020.2 |
| 20260902220151 | 21 | 166 | 0.0 | 4.8 | 0.00 | 0.23 | 0.00 | 70 | 1020.5 |
| 20260902210151 | 22 | 177 | 1.6 | 6.4 | 0.00 | 0.30 | 0.00 | 70 | 1019.9 |
| 20260902200151 | 22 | 114 | 1.6 | 4.8 | 0.00 | 0.30 | 0.00 | 71 | 1020.3 |
| 20260902191742 | 24 | 170 | 3.2 | 11.3 | 0.00 | 0.30 | 0.00 | 54 | 1020.8 |